Regional Weather Roundup
Issued by NWS

Home | Current Version | Previous Version | Graphics & Text | Print | Product List | Glossary On
Versions: 1 2 3 4 5 6 7 8 9 10 11 12 13 14 15 16 17 18 19 20 21 22 23 24 25 26 27 28 29 30 31 32 33 34 35 36 37 38 39 40 41 42 43 44 45 46 47 48 49 50
000
ASUS45 KCYS 181410
RWRWY

WYOMING REGIONAL WEATHER ROUNDUP
NATIONAL WEATHER SERVICE CHEYENNE WY
700 AM MST THU DEC 18 2014

NOTE:  "FAIR" INDICATES FEW OR NO CLOUDS BELOW 12,000 FEET
WITH NO SIGNIFICANT WEATHER AND/OR OBSTRUCTIONS TO VISIBILITY.

WYZ001-181500-
YELLOWSTONE NATIONAL PARK

CITY           SKY/WX    TMP DP  RH WIND       PRES   REMARKS
LK YELLOWSTONE   N/A     18  15  88 CALM      30.04R
W YELLOWSTONE  NOT AVBL

$$
WYZ002>013-054>058-071-098>099-181500-
NORTHERN WYOMING

CITY           SKY/WX    TMP DP  RH WIND       PRES   REMARKS
JACKSON        CLOUDY    16  16 100 N7        30.06S WCI   6
CODY           FAIR      23  18  80 CALM      29.98R
GREYBULL       FAIR       7   3  84 CALM      30.06R
WORLAND        FAIR      -5  -9  83 SW3       30.04R
SHERIDAN       FAIR      13   8  81 CALM      29.96R
BUFFALO        FAIR      24  15  68 W12       29.96R WCI  13
GILLETTE       FAIR      26  18  71 SW8       29.96R WCI  18
HULETT           N/A    N/A N/A N/A MISG        N/A
NEWCASTLE      FAIR      12  12 100 CALM      30.00R

$$
WYZ014>020-022>026-101>103-181500-
CENTRAL WYOMING

CITY           SKY/WX    TMP DP  RH WIND       PRES   REMARKS
BIG PINEY      FAIR       5   0  79 E5        30.06R WCI  -4
PINEDALE       FAIR       9   5  85 W7        30.06R WCI  -3
DUBOIS         FAIR      23  12  63 W15       30.00R WCI  10
LANDER         FAIR      -3  -7  82 CALM      30.02R
RIVERTON       HAZE       7   2  80 CALM      30.04R VSB 1/4
CASPER         FAIR      20  13  74 SW12      30.00R WCI   8
DOUGLAS        FAIR       5   1  83 CALM      30.01R

$$
WYZ021-027>030-104>119-181500-
SOUTHERN WYOMING

CITY           SKY/WX    TMP DP  RH WIND       PRES   REMARKS
EVANSTON       CLOUDY    21  19  92 SW6       30.07R WCI  13
KEMMERER       PTSUNNY   19  18  93 CALM      30.06
FORT BRIDGER   PTSUNNY   23  21  91 SW9       30.09R WCI  13
ROCK SPRINGS   FAIR      16  14  92 W9        30.07R WCI   4
DIXON          FLURRIES N/A N/A N/A E3        30.12S
RAWLINS        FAIR      19  15  84 SW15      30.05R WCI   5
SARATOGA       PTSUNNY   18  14  86 SW3       30.06R
LARAMIE        FAIR      13   8  81 SW10      29.98R WCI   0
CHEYENNE       FAIR      27  15  61 W13       30.00R WCI  16
TORRINGTON     CLOUDY     5   1  83 CALM      30.02R FOG
PINE BLUFFS    FAIR      19  14  79 W9        30.01S WCI   9

$$


USA.gov is the U.S. government's official web portal to all federal, state and local government web resources and services.